Temperature
16 16 16 16 15 15 15 15 15 15 15 15 15 15 15 15 15 15 15 15 15 15 15 15 15 15 15 15 15 15 15 15 15 15 15 15 15 15 15 15 15 15 15
15 15 15 15 15 15 15 15 15 15 15 15 15 15 15 15 15 15 15 15 15 15 15 15 15 15 15 15 15 15 15 14 14 14 14 14 14 14 14 14 14 14 14
15 15 15 15 15 15 15 15 15 15 15 15 15 15 15 15 15 15 15 15 15 15 15 15 14 14 14 14 14 14 14 14 14 14 14 14 14 14 14 14 14 14 14
15 15 15 15 15 15 15 15 15 15 15 15 15 15 14 15 15 15 15 15 15 15 14 14 14 14 14 14 14 14 14 14 14 14 14 14 14 14 14 14 14 14 14
15 15 15 15 15 15 15 15 14 15 14 14 14 14 14 14 14 14 14 14 14 14 14 14 14 14 14 14 14 13 13 13 13 13 13 13 13 13 13 13 14 14 14
14 15 15 14 15 15 15 14 14 14 14 14 14 14 14 14 14 14 14 14 14 14 14 14 14 14 14 13 13 13 13 13 13 13 13 13 13 13 13 13 13 13 13
14 14 14 14 14 14 14 14 14 14 14 14 14 14 14 14 14 14 14 14 14 14 14 14 14 13 13 13 13 13 13 13 13 13 13 13 13 13 13 13 13 13 13
14 14 14 14 14 14 14 14 14 14 14 14 14 14 13 13 13 13 13 13 13 13 13 13 13 13 13 13 13 13 13 13 13 12 12 12 12 12 12 12 12 12 12
14 14 14 14 14 14 14 14 14 14 14 14 14 14 14 13 13 13 13 13 13 13 13 13 13 13 13 13 13 13 13 12 12 12 12 12 12 12 12 12 12 12 12
14 14 14 14 14 14 14 14 14 14 14 14 14 14 13 13 13 13 13 13 13 13 13 13 13 13 13 13 13 13 12 12 12 12 12 12 12 12 12 12 12 12 12
14 14 14 14 14 14 14 14 14 13 13 13 13 13 13 13 13 13 13 13 13 12 12 12 12 12 13 13 13 12 12 12 12 12 12 12 12 12 12 12 11 11 11
14 14 14 14 14 13 13 13 13 13 13 13 13 13 13 13 13 13 13 13 13 12 12 12 12 12 12 12 12 12 12 12 12 12 12 12 12 11 11 11 11 11 11
14 14 14 14 13 13 13 13 13 13 13 13 13 13 13 13 13 13 13 13 12 12 12 12 12 12 12 12 12 12 12 12 12 12 12 12 11 11 11 11 11 11 11
14 14 14 13 13 13 13 13 13 13 13 13 13 13 13 13 13 13 13 13 12 12 12 12 12 12 12 12 12 12 12 12 12 12 12 11 11 11 11 11 11 11 11
14 14 14 13 13 13 13 13 13 13 13 13 13 13 13 13 13 13 13 13 12 12 12 12 12 12 12 12 12 11 11 11 11 11 11 11 11 11 11 11 11 11 10
14 14 14 14 13 13 13 13 13 13 13 13 13 13 13 13 13 13 13 12 12 12 12 12 12 12 12 12 11 11 11 11 11 11 11 11 11 11 11 10 10 10 10
14 14 14 13 13 13 13 13 13 13 13 13 13 13 13 13 13 13 12 12 12 12 12 12 11 11 11 11 11 11 11 11 11 11 10 10 10 10 10 10 10 10 10
14 14 14 13 13 13 13 13 13 13 13 13 13 13 13 12 12 12 12 12 12 12 12 12 11 11 11 11 11 11 11 10 10 10 10 10 10 10 10 10 10 10 10
14 14 13 13 13 13 13 13 13 13 13 13 12 12 12 12 12 12 12 12 12 12 12 12 11 11 11 11 11 11 10 10 10 10 10 10 10 10 10 10 10 10 10
14 13 13 13 13 13 13 13 13 12 12 12 12 12 12 12 12 12 12 12 12 12 12 11 11 11 11 11 10 10 10 10 10 10 10 10 10 10 9 9 9 9 9
14 13 13 13 13 13 13 12 12 12 12 12 12 12 12 12 12 12 12 11 11 11 11 11 11 11 11 10 10 10 10 10 10 10 10 10 10 10 9 9 9 9 9
13 13 13 13 13 13 13 12 12 12 12 12 12 12 12 12 12 12 11 11 11 11 11 11 11 11 11 10 10 10 9 10 9 10 10 10 9 9 9 9 9 9 9
13 13 13 13 13 13 12 12 12 12 12 12 12 12 12 12 11 11 11 11 11 11 11 11 11 10 10 10 10 10 9 9 9 9 9 9 9 9 9 9 9 9 9
13 13 13 13 13 12 12 12 12 12 12 12 12 12 11 11 11 11 11 11 11 11 11 11 10 10 10 10 10 9 9 9 9 9 9 9 9 9 9 9 9 8 8
13 13 12 12 12 12 12 12 12 12 12 12 12 11 11 11 11 11 11 11 11 10 10 10 10 10 10 10 9 9 9 9 9 9 8 8 8 9 9 9 8 8 8
12 12 12 12 12 12 12 12 12 12 12 12 11 11 11 11 11 10 10 10 10 10 10 10 10 10 9 9 9 9 9 8 8 8 8 8 8 8 8 8 8 8 8
Wind_Speed
3 4 5 6 6 6 6 6 6 7 7 8 8 8 7 7 8 7 7 10 10 10 10 10 9 9 9 8 8 8 8 8 8 8 7 8 8 8 8 8 8 8 9
4 4 4 5 5 6 7 6 6 6 6 6 7 7 7 7 8 8 8 9 10 10 10 10 9 9 8 8 8 7 8 8 8 8 8 8 9 8 8 8 9 10 10
5 5 4 4 4 6 7 7 7 7 6 6 6 6 7 7 8 8 8 8 8 10 10 10 10 9 8 8 8 8 8 8 8 8 8 8 8 8 8 8 9 9 9
6 6 4 3 5 6 6 5 4 5 5 5 5 4 5 6 7 8 8 8 8 8 9 10 10 9 8 8 8 8 8 8 8 8 8 8 8 8 8 8 8 9 9
6 6 5 4 6 6 5 4 4 4 4 4 4 4 4 4 5 7 7 8 8 8 8 8 9 10 9 8 7 8 8 8 8 8 9 9 9 9 9 8 8 8 8
6 6 5 5 5 5 4 4 4 4 3 3 5 5 4 4 5 5 5 7 8 8 8 8 8 8 9 9 8 8 8 7 8 8 8 8 8 9 8 8 7 8 8
5 6 4 4 4 4 4 4 4 4 3 3 4 4 4 4 4 4 5 5 6 7 8 8 8 8 8 8 8 7 7 7 7 7 8 8 8 8 8 8 8 8 9
4 4 4 3 3 3 4 3 3 3 2 2 2 2 2 4 4 4 4 4 5 5 6 7 8 8 7 7 7 7 7 6 6 6 6 6 7 7 8 8 9 10 11
2 3 4 3 3 3 3 2 3 3 2 1 2 2 2 1 1 3 4 4 4 4 4 5 7 7 6 7 6 6 6 6 5 5 5 6 6 6 8 9 10 10 10
2 2 3 3 3 3 2 2 2 2 3 1 1 2 1 2 2 1 3 3 4 4 4 4 5 5 6 6 6 6 6 6 5 5 5 5 5 5 7 8 9 9 8
1 1 3 3 3 2 2 2 2 2 2 2 2 1 2 2 2 2 0 2 3 2 2 3 3 4 5 5 5 5 6 6 6 5 5 5 5 5 6 7 7 7 7
1 0 2 3 3 2 2 2 2 2 2 2 2 2 2 2 2 2 1 1 1 2 2 2 2 3 4 4 4 5 6 5 5 5 5 5 5 6 6 6 6 6 6
1 2 1 2 2 3 3 3 2 2 2 2 2 2 2 2 2 3 3 1 0 2 2 2 1 2 3 3 4 5 5 5 5 5 5 5 5 5 5 5 5 4 4
3 3 3 2 3 3 3 3 2 2 2 2 2 2 2 2 3 3 3 3 1 1 1 2 1 1 2 2 3 3 3 4 4 4 4 4 4 4 4 4 4 3 3
3 3 3 3 3 3 3 3 2 2 2 2 2 2 2 2 2 2 3 3 4 2 2 2 1 1 1 1 2 2 2 3 3 3 2 2 2 2 2 2 2 2 2
3 3 3 3 3 3 3 3 2 2 2 2 2 2 1 1 1 2 2 2 2 3 2 2 2 1 1 1 1 1 1 2 3 2 2 1 1 1 1 1 0 0 1
3 3 3 3 3 3 3 3 3 3 2 1 1 2 1 2 1 1 2 2 2 2 2 1 0 1 0 1 1 1 2 1 1 2 2 1 0 1 1 1 0 1 1
3 4 4 3 3 3 3 4 4 3 3 3 2 2 1 1 2 1 2 2 2 2 3 2 1 0 0 1 1 1 2 1 1 2 2 2 1 1 1 2 2 1 1
3 3 3 4 4 3 4 4 4 4 3 3 3 3 3 2 2 2 2 2 2 2 2 2 1 0 0 1 1 1 2 2 2 2 3 2 2 1 2 2 2 2 2
3 3 3 4 4 3 4 4 4 4 3 3 3 3 3 4 4 3 3 3 3 2 2 2 1 0 1 1 0 0 1 2 2 2 2 2 2 2 3 3 4 4 4
3 3 3 3 3 3 4 5 5 5 4 3 2 3 3 4 5 4 3 3 4 3 2 2 1 0 1 1 1 1 1 1 2 1 1 2 2 2 3 4 4 4 5
2 2 3 3 3 3 4 6 5 4 4 4 4 3 3 3 5 6 6 6 6 5 4 3 2 3 3 3 2 2 1 0 2 1 0 2 1 2 4 4 5 5 5
3 3 3 3 3 4 5 5 6 4 4 4 5 4 3 3 3 3 4 5 5 6 7 6 5 5 5 5 4 3 3 3 3 2 1 2 1 3 5 5 6 5 5
3 3 3 3 3 4 4 5 5 4 3 4 4 5 4 4 3 4 3 3 3 4 6 5 6 6 6 5 6 4 4 2 1 1 2 2 2 3 4 5 6 6 6
3 2 2 3 3 4 4 4 4 3 2 3 3 3 4 4 5 5 4 4 3 4 5 6 7 6 6 6 6 3 3 1 2 3 2 2 2 2 3 3 5 5 6
3 2 2 2 3 3 3 4 5 3 2 2 1 2 4 5 5 5 5 5 5 4 2 2 3 4 5 6 7 6 5 3 2 3 3 3 2 1 2 2 3 4 5
Wind_Direction
68 67 66 65 64 76 85 85 82 76 70 66 65 66 61 56 52 46 40 48 53 58 64 67 70 74 75 78 80 81 79 72 67 64 63 64 63 61 60 58 60 64 63
90 82 69 66 64 72 83 89 89 83 73 68 61 60 57 55 53 48 41 40 45 51 57 60 63 68 71 73 77 78 77 72 71 68 66 63 62 61 62 62 63 65 62
94 94 82 70 73 82 85 86 83 80 77 69 57 52 53 53 53 48 44 40 37 41 48 53 54 57 64 70 74 76 75 72 71 70 68 67 64 63 63 64 63 64 63
93 98 90 83 88 89 88 83 76 76 69 66 59 46 48 52 52 50 47 42 39 36 38 45 46 48 53 62 69 74 75 74 73 70 67 65 63 62 62 63 63 64 64
92 100 96 96 96 92 84 86 78 86 83 71 64 50 42 44 42 49 45 41 41 40 37 34 37 40 45 48 59 69 75 74 74 69 66 63 59 59 61 61 65 65 67
93 98 96 94 97 89 80 84 87 78 85 81 73 55 39 39 42 39 36 40 39 39 41 39 36 32 36 43 50 58 65 69 70 67 66 62 58 60 60 60 63 69 70
99 100 98 95 95 94 101 102 100 87 76 79 79 51 30 36 42 34 33 37 34 36 43 42 42 40 33 35 41 46 54 59 66 68 66 63 62 62 58 57 69 72 73
104 112 111 105 101 101 97 99 103 101 74 50 92 84 32 10 19 27 27 35 27 31 37 41 44 39 34 33 31 37 43 48 58 66 68 65 65 64 60 64 72 78 78
106 116 127 122 117 117 126 124 116 116 116 45 65 123 126 194 338 357 20 28 23 25 24 35 41 39 35 36 30 35 41 41 49 55 60 62 64 66 69 72 77 80 79
100 122 139 134 131 126 135 146 119 120 128 122 54 56 111 147 142 358 349 6 18 25 14 25 33 34 35 36 32 36 39 38 46 49 50 51 52 65 80 84 84 83 81
69 132 149 142 140 140 149 141 123 122 129 140 139 121 90 67 91 140 281 335 355 1 8 15 23 23 28 32 35 43 43 42 40 39 42 40 48 70 91 92 89 86 86
341 128 149 147 152 153 164 165 152 146 144 137 141 144 148 146 159 143 168 278 310 321 351 8 14 13 22 26 32 42 43 41 38 38 37 38 55 76 93 91 87 86 91
243 242 186 172 174 181 176 160 155 170 166 159 168 175 173 174 154 145 140 160 292 311 336 344 338 358 10 20 28 38 42 41 42 41 37 37 45 64 87 88 83 79 83
221 212 198 194 192 185 178 165 166 187 172 181 188 179 173 182 165 157 156 149 124 325 330 299 326 319 341 4 16 30 33 35 42 41 38 35 38 62 77 84 82 80 79
219 201 190 193 197 188 181 169 177 191 172 184 195 188 182 189 177 173 159 157 154 187 260 270 292 312 299 339 2 15 9 24 41 39 31 30 56 75 74 80 83 83 86
214 191 191 190 193 188 183 172 174 179 160 182 180 163 165 180 174 167 168 165 159 169 215 242 238 301 307 326 336 355 337 4 27 26 23 44 73 93 93 76 71 118 127
204 198 191 186 188 191 184 176 179 170 166 180 171 160 182 157 154 165 155 151 158 156 193 272 308 342 52 9 344 346 345 337 0 19 18 0 310 208 202 203 254 300 280
207 201 191 189 196 195 185 183 188 181 181 189 194 171 204 152 147 154 154 162 175 169 169 211 270 311 310 324 353 358 347 353 311 341 347 340 310 264 239 241 241 243 254
205 198 188 196 204 204 197 197 195 194 194 200 197 191 202 169 181 177 170 175 180 165 158 173 214 272 313 358 14 1 5 352 332 313 311 310 305 308 283 251 239 234 233
192 197 202 207 208 208 209 204 196 197 198 203 207 207 199 192 200 191 184 184 167 152 149 152 160 250 271 323 82 311 336 354 339 335 330 307 300 296 280 262 249 241 240
206 198 195 212 209 206 213 205 200 198 196 205 220 227 222 212 211 202 194 185 165 160 157 163 178 206 258 240 236 226 243 318 322 318 346 310 287 278 271 268 257 250 243
219 206 204 205 214 223 217 207 196 194 195 200 217 234 235 225 225 219 214 197 182 176 185 188 203 216 238 231 213 209 208 244 279 269 209 292 267 277 271 263 264 262 251
209 213 223 207 221 233 218 205 198 188 195 206 213 221 229 223 213 213 219 212 210 207 197 191 200 219 222 217 196 202 207 215 236 233 197 267 275 271 272 274 265 255 255
206 213 222 221 224 242 222 214 202 190 201 218 218 214 218 234 221 198 193 204 222 227 222 210 211 222 221 207 196 197 197 199 277 254 186 232 262 267 284 276 265 254 253
205 208 214 218 219 242 221 209 191 179 202 232 233 220 214 228 236 207 186 207 236 260 249 226 226 231 227 212 183 145 149 161 263 262 204 209 252 287 294 280 276 264 254
205 200 213 228 224 233 228 213 189 178 197 229 253 249 235 234 239 216 197 198 223 246 229 220 230 238 228 218 204 194 189 191 217 248 215 200 241 267 291 281 279 271 259
Height
1541 1541 1541 1540 1540 1540 1541 1541 1542 1542 1542 1543 1543 1543 1544 1544 1544 1544 1544 1544 1543 1543 1543 1542 1542 1542 1542 1541 1541 1541 1541 1541 1541 1541 1540 1540 1540 1540 1539 1539 1539 1539 1539
1542 1542 1542 1542 1541 1541 1541 1542 1542 1543 1543 1544 1544 1544 1545 1545 1545 1545 1545 1544 1544 1544 1544 1543 1543 1543 1542 1542 1541 1541 1541 1541 1541 1541 1540 1540 1539 1539 1539 1539 1538 1538 1539
1543 1543 1543 1543 1543 1543 1543 1542 1543 1544 1544 1545 1545 1545 1546 1546 1546 1546 1545 1545 1545 1545 1544 1544 1544 1543 1543 1542 1542 1542 1541 1541 1541 1541 1540 1540 1539 1539 1539 1538 1538 1538 1538
1544 1544 1544 1544 1544 1544 1544 1544 1544 1545 1546 1546 1546 1546 1547 1547 1547 1547 1546 1546 1546 1545 1545 1545 1544 1544 1543 1543 1542 1542 1541 1541 1541 1541 1540 1540 1539 1538 1538 1537 1537 1537 1537
1545 1545 1545 1545 1545 1546 1546 1546 1546 1546 1546 1547 1547 1547 1547 1547 1547 1547 1547 1547 1547 1546 1546 1545 1545 1544 1544 1543 1543 1542 1541 1541 1541 1540 1540 1539 1538 1538 1537 1536 1536 1536 1536
1546 1546 1546 1546 1546 1547 1547 1547 1547 1547 1547 1547 1547 1548 1548 1548 1548 1548 1548 1548 1547 1547 1547 1546 1545 1545 1544 1544 1543 1543 1542 1541 1541 1540 1539 1539 1538 1537 1536 1534 1534 1534 1534
1547 1547 1547 1547 1547 1547 1547 1547 1548 1548 1548 1548 1548 1548 1549 1549 1549 1549 1549 1548 1548 1548 1547 1546 1546 1545 1544 1544 1543 1543 1542 1542 1541 1540 1539 1538 1537 1536 1534 1531 1530 1530 1532
1547 1547 1547 1547 1547 1548 1548 1548 1548 1548 1548 1549 1549 1548 1549 1551 1549 1549 1549 1549 1548 1548 1547 1546 1545 1545 1544 1544 1544 1543 1543 1542 1541 1540 1539 1538 1536 1535 1533 1531 1529 1529 1531
1548 1548 1548 1548 1548 1548 1548 1548 1548 1548 1548 1549 1549 1550 1549 1549 1550 1550 1549 1549 1549 1548 1547 1546 1545 1545 1544 1544 1544 1543 1542 1542 1541 1540 1539 1537 1536 1535 1533 1532 1531 1532 1533
1548 1548 1548 1548 1548 1548 1548 1548 1548 1548 1549 1549 1549 1549 1550 1550 1550 1550 1550 1549 1549 1548 1547 1546 1546 1545 1544 1544 1543 1543 1542 1542 1541 1540 1538 1536 1534 1533 1533 1534 1534 1534 1535
1547 1547 1547 1547 1548 1548 1548 1548 1548 1548 1548 1548 1549 1549 1549 1549 1549 1549 1549 1549 1549 1548 1547 1547 1546 1545 1544 1544 1543 1543 1542 1542 1541 1540 1538 1535 1532 1531 1532 1534 1536 1536 1536
1546 1547 1547 1547 1547 1547 1547 1548 1548 1548 1548 1548 1548 1548 1549 1549 1549 1548 1548 1548 1548 1548 1547 1547 1546 1545 1544 1543 1543 1543 1542 1542 1541 1540 1539 1536 1533 1532 1534 1536 1537 1537 1538
1545 1546 1546 1546 1547 1547 1547 1547 1547 1547 1548 1548 1548 1548 1548 1548 1548 1548 1548 1547 1547 1547 1547 1547 1546 1545 1544 1543 1543 1543 1542 1541 1541 1540 1539 1538 1537 1536 1536 1537 1538 1538 1538
1544 1545 1545 1545 1546 1546 1546 1546 1547 1547 1547 1547 1547 1547 1547 1547 1547 1547 1547 1547 1546 1546 1546 1546 1546 1545 1544 1543 1543 1542 1542 1541 1540 1540 1539 1539 1538 1538 1538 1538 1538 1538 1538
1543 1543 1543 1544 1544 1545 1545 1545 1545 1545 1546 1546 1546 1546 1546 1546 1546 1546 1546 1546 1547 1545 1545 1545 1545 1544 1543 1543 1542 1542 1541 1541 1540 1540 1539 1539 1538 1538 1538 1538 1538 1538 1538
1541 1541 1541 1542 1542 1543 1543 1543 1544 1544 1544 1544 1544 1544 1544 1544 1544 1544 1545 1545 1545 1545 1544 1544 1543 1543 1542 1542 1542 1541 1540 1540 1539 1539 1538 1538 1538 1537 1537 1537 1537 1537 1537
1538 1539 1539 1540 1540 1540 1541 1541 1542 1542 1542 1543 1543 1543 1543 1543 1543 1543 1543 1543 1543 1543 1543 1542 1542 1541 1541 1540 1540 1540 1539 1539 1538 1538 1537 1537 1536 1536 1536 1536 1536 1535 1535
1536 1536 1537 1537 1538 1538 1539 1540 1540 1540 1540 1541 1541 1541 1541 1541 1541 1541 1541 1541 1541 1541 1541 1540 1540 1539 1539 1539 1539 1538 1538 1537 1537 1536 1536 1535 1535 1535 1534 1534 1534 1534 1534
1533 1534 1534 1535 1535 1536 1537 1537 1538 1538 1538 1539 1539 1539 1539 1539 1539 1539 1539 1539 1539 1539 1539 1538 1538 1538 1537 1537 1536 1536 1536 1535 1535 1535 1534 1534 1533 1533 1532 1532 1532 1532 1531
1531 1531 1532 1532 1533 1533 1534 1535 1535 1536 1536 1537 1537 1537 1537 1537 1537 1537 1536 1536 1536 1536 1536 1536 1535 1535 1535 1534 1534 1533 1533 1533 1533 1532 1532 1531 1531 1530 1530 1530 1529 1529 1529
1529 1529 1530 1530 1531 1531 1532 1532 1533 1533 1534 1534 1534 1535 1535 1535 1535 1535 1534 1534 1534 1533 1533 1533 1533 1532 1532 1532 1531 1531 1530 1530 1530 1530 1529 1529 1528 1528 1527 1527 1527 1526 1526
1527 1527 1527 1527 1528 1528 1529 1529 1530 1530 1531 1531 1531 1532 1532 1532 1532 1532 1532 1531 1531 1531 1530 1530 1530 1530 1529 1529 1529 1529 1528 1527 1526 1527 1526 1526 1526 1525 1525 1524 1524 1523 1523
1524 1524 1524 1525 1525 1526 1526 1526 1527 1527 1528 1528 1528 1528 1529 1529 1529 1529 1528 1528 1528 1528 1528 1528 1527 1527 1527 1527 1526 1526 1525 1525 1524 1524 1523 1522 1523 1522 1522 1521 1521 1520 1520
1520 1521 1521 1521 1522 1522 1523 1524 1524 1524 1524 1525 1525 1525 1525 1526 1526 1526 1525 1525 1525 1525 1525 1524 1524 1524 1524 1524 1524 1524 1523 1522 1522 1521 1521 1519 1519 1519 1518 1518 1518 1517 1517
1517 1517 1518 1518 1518 1519 1520 1520 1521 1520 1521 1521 1521 1522 1522 1522 1522 1522 1521 1521 1521 1521 1521 1521 1521 1521 1521 1521 1520 1520 1519 1519 1517 1517 1518 1517 1516 1515 1514 1514 1514 1513 1513
1513 1514 1515 1515 1515 1516 1516 1517 1517 1517 1517 1517 1517 1518 1518 1518 1518 1518 1517 1517 1517 1517 1517 1517 1517 1517 1517 1517 1517 1516 1516 1515 1514 1514 1514 1513 1512 1512 1510 1510 1510 1509 1509